Home > Weather > Inuvik > Past weeks

Flag for Canada Past Weather in Inuvik, Northwest Territories, Canada — Yesterday and Last 2 Weeks

Now
48 °F

Passing clouds.


Feels Like: 48 °F
Forecast: 46 / 66 °F
Wind: 2 mph from Northeast

Location: Inuvik

Current Time: Aug 24, 2016 at 10:14:20 AM

Latest Report: Aug 24, 2016 at 9:00 AM


Visibility: 15 mi

Pressure: 30.21 "Hg

Humidity: 100%

Dew Point: 48 °F

Location of InuvikLocation

Past Weather in Inuvik — Graph

°F

Inuvik Temperature Yesterday

Maximum temperature yesterday: 55 °F (at 7:00 PM)
Minimum temperature yesterday: 43 °F (at 4:00 AM)
Average temperature yesterday: 48 °F

High & Low Weather Summary for the Past Weeks

 TemperatureHumidityPressure
High73 °F (Aug 13, 5:00 PM)100% (Aug 10, 12:54 AM)30.21 "Hg (Aug 10, 12:54 AM)
Low41 °F (Aug 17, 4:00 AM)43% (Aug 18, 6:00 PM)29.56 "Hg (Aug 22, 10:00 AM)
Average52 °F86%29.84 "Hg
* Reported Aug 9 9:00 AM — Aug 24 9:00 AM, Inuvik, Weather by CustomWeather, © 2016

Note: Actual official high and low records may vary slightly from our data, if they occured in-between our weather recording intervals... More about our weather records

Advertising

Inuvik Weather History for the Previous 24 Hours

Scroll right to see more
 ConditionsComfort  
Time TempWeatherWind HumidityBarometerVisibility
9:00 AM
Wed, Aug 24
48 °FPassing clouds.2 mph100%30.21 "Hg15 mi
8:00 AM45 °FPassing clouds.5 mph100%30.19 "Hg15 mi
7:00 AM46 °FFog.2 mph93%30.19 "Hg15 mi
6:00 AM46 °FPartly cloudy.2 mph100%30.19 "Hg15 mi
5:00 AM46 °FPassing clouds.3 mph93%30.17 "Hg15 mi
4:00 AM46 °FOvercast.No wind100%30.16 "Hg15 mi
3:00 AM48 °FOvercast.No wind100%30.16 "Hg15 mi
2:00 AM50 °FOvercast.No wind94%30.15 "Hg15 mi
1:00 AM50 °FMore clouds than sun.3 mph94%30.14 "Hg15 mi
12:00 AM52 °FMore clouds than sun.2 mph88%30.14 "Hg15 mi
11:00 PM
Tue, Aug 23
52 °FMostly cloudy.2 mph88%30.13 "Hg15 mi
10:00 PM52 °FSprinkles. Mostly cloudy.No wind88%30.12 "Hg15 mi
9:52 PM54 °FSprinkles. Mostly cloudy.No wind82%30.11 "Hg15 mi
9:00 PM54 °FMostly cloudy.5 mph82%30.11 "Hg15 mi
8:00 PM54 °FMostly cloudy.5 mph77%30.10 "Hg15 mi
7:00 PM55 °FMostly cloudy.6 mph72%30.09 "Hg15 mi
6:00 PM54 °FBroken clouds.5 mph77%30.09 "Hg15 mi
5:00 PM52 °FMostly cloudy.7 mph77%30.08 "Hg15 mi
4:00 PM52 °FMostly cloudy.2 mph77%30.09 "Hg15 mi
3:00 PM50 °FMostly cloudy.7 mph76%30.09 "Hg15 mi
2:00 PM48 °FDrizzle. Mostly cloudy.5 mph82%30.08 "Hg15 mi
1:00 PM46 °FDrizzle. Mostly cloudy.5 mph87%30.07 "Hg15 mi
12:51 PM46 °FDrizzle. Low clouds.7 mph87%30.07 "Hg10 mi
12:00 PM46 °FMostly cloudy.5 mph82%30.06 "Hg15 mi
11:00 AM45 °FMostly cloudy.5 mph87%30.06 "Hg15 mi
10:00 AM45 °FLow clouds.6 mph87%30.04 "Hg15 mi
Weather by CustomWeather, © 2016

See weather overviewHow to use our weather pages